Location: Fort Worth, Tx
(32.7431°N, 97.3695°W)
Time: 06:30:02
(UTC-05:00)

ISS - Pass Details

Date: 21 November 2019
Orbit: 411 x 421 km, 51.6° (Epoch: 15 December)

Event Time Altitude Azimuth Distance (km) Brightness Sun altitude
Rises 19:18:13 0° 225° (SW) 2,337 1.2 -11.2°
Reaches altitude 10° 19:20:18 10° 225° (SW) 1,480 0.1 -11.7°
Maximum altitude 19:23:37 90° 338° (NNW) 419 -3.8 -12.3°
Enters shadow 19:25:53 19° 46° (NE) 1,055 -2.3 -12.8°
